Flag for Canada Weather past 2 weeks in Summerside, Pr.Edward I, Canada

Now
49 °F

Cool.


Feels Like: 48 °F
Forecast: 51 / 71 °F
Wind: 3 mph from Southwest

Location: Summerside Airport

Current Time: Aug 29, 2014 at 9:26:53 PM

Latest Report: Aug 29, 2014 at 9:00 PM


Visibility: N/A

Pressure: 30.18 "Hg

Humidity: 87%

Dew point: 45 °F

Location of SummersideLocation

Historic Weather in Summerside — Graph

°F

Summerside temperature yesterday

Maximum temperature yesterday: 71 °F (at 3:00 PM)
Minimum temperature yesterday: 61 °F (at 11:00 PM)
Average temperature yesterday: 65 °F

Past Weeks' High & Low Weather Summary

 TemperatureHumidityPressure
High79 °F (Aug 26, 2:00 PM)100% (Aug 15, 10:00 PM)30.17 "Hg (Aug 15, 10:00 PM)
Low49 °F (Aug 24, 6:00 AM)49% (Aug 24, 4:00 PM)29.54 "Hg (Aug 18, 3:00 PM)
Average65 °F82%29.93 "Hg
* Reported Aug 14 8:00 PM — Aug 29 8:00 PM, Summerside, Weather by CustomWeather, © 2014

Note: Actual official high and low records may vary slightly from our data, if they occured in-between our weather recording intervals... More about our weather records

Advertising

Summerside weather history for previous 24 hours

 ConditionsComfort  
Time TempWeatherWind HumidityBarometerVisibility
8:00 PM
Aug 29
54 °FCool.2 mph74%30.17 "HgN/A
7:00 PM58 °FRefreshingly cool.7 mph55%30.16 "HgN/A
6:00 PM60 °FRefreshingly cool.9 mph55%30.16 "HgN/A
4:00 PM61 °FCool.15 mph61%30.14 "HgN/A
3:00 PM61 °FRefreshingly cool.18 mph58%30.13 "HgN/A
2:00 PM60 °FCool.20 mph61%30.10 "HgN/A
1:00 PM61 °FCool.22 mph61%30.08 "HgN/A
12:00 PM59 °FCool.23 mph60%30.07 "HgN/A
11:00 AM59 °FCool.26 mph61%30.03 "HgN/A
10:00 AM59 °FCool.24 mph61%30.01 "HgN/A
9:00 AM57 °FCool.22 mph67%29.97 "HgN/A
8:00 AM58 °FCool.23 mph70%29.93 "HgN/A
7:00 AM57 °FCool.22 mph82%29.90 "HgN/A
6:00 AM58 °FCool.24 mph81%29.86 "HgN/A
5:00 AM57 °FCool.23 mph90%29.83 "HgN/A
4:00 AM57 °FCool.22 mph85%29.81 "HgN/A
3:00 AM58 °FCool.22 mph84%29.79 "HgN/A
2:00 AM58 °FCool.21 mph89%29.77 "HgN/A
1:00 AM60 °FCool.23 mph85%29.76 "HgN/A
12:00 AM60 °FCool.24 mph89%29.74 "HgN/A
11:00 PM
Aug 28
61 °FCool.23 mph91%29.72 "HgN/A
10:00 PM62 °FCool.23 mph89%29.71 "HgN/A
9:00 PM62 °FMild.17 mph90%29.69 "HgN/A
Weather by CustomWeather, © 2014

See weather overviewHow to use our weather pages